[[{"header":{"parameterUnit":"m.s-1","parameterCategory":1,"la1":30.2992,"la2":30.254,"lo1":-89.0895,"lo2":-89.0443,"dy":0.0025,"dx":0.0025,"nx":19,"ny":19,"refTime":"2026-03-19T03:00:00:Z","depth":0,"parameterNumber":2,"parameterNumberName":"U-component_of_WINDS"},"data":[0,0,0,1.6841,1.6841,1.6839,1.6839,1.6842,1.6842,0,0,0,0,0,0,0,0,0,0,0,1.6848,1.6848,1.6841,1.6841,1.6839,1.6839,1.6842,1.6842,0,0,0,0,0,0,0,0,0,0,0,1.6848,1.6848,1.6849,1.6841,1.6839,1.6839,1.6842,1.6841,0,0,0,0,0,0,0,0,0,0,1.6842,1.6856,1.6848,1.6849,1.6841,1.6839,1.6839,1.6841,1.6841,1.6847,0,1.6855,0,1.6849,1.6843,1.6843,0,0,0,1.6836,1.6855,1.6849,1.6849,1.6841,1.6839,1.6838,1.6841,1.6841,1.6847,1.6855,1.6855,1.6849,1.6843,1.6843,1.6895,1.6895,0,0,1.6836,1.6851,1.6849,1.6849,1.6853,1.6838,1.6838,1.6841,1.685,1.6855,1.6855,1.6849,1.6843,1.6843,1.6894,1.6895,0,0,0,1.684,1.6851,1.6844,1.685,1.6849,1.6839,1.6838,1.685,1.6847,1.6855,1.6849,1.6843,1.6843,1.6894,1.6894,1.6931,0,0,0,1.684,1.6853,1.6845,1.6854,1.6849,1.685,1.6848,1.6847,1.6846,1.6849,1.6843,1.6844,1.6893,1.6894,1.6929,1.6945,0,0,0,1.6846,1.6854,1.6856,1.6855,1.6854,1.685,1.6846,1.6846,1.6843,1.6843,1.6844,1.6893,1.6894,1.6927,1.6942,1.6961,0,0,0,1.6857,1.689,1.6857,1.6892,1.6855,1.6873,1.6846,1.6859,1.6864,1.6843,1.6893,1.6894,1.6926,1.694,1.6959,1.6978,1.6988,0,0,1.6907,1.6897,1.6916,1.6886,1.6915,1.6873,1.6905,1.6896,1.6882,1.6891,1.6892,1.693,1.6942,1.696,1.7042,1.705,0,0,0,1.6937,1.695,1.6955,1.696,1.6953,1.6947,1.6931,1.6927,1.6933,1.689,1.6942,1.6949,1.6959,1.6967,1.6974,1.698,1.69,1.6899,1.6899,1.7029,1.7009,1.7038,1.7017,1.7022,1.7003,1.7004,1.6994,1.6974,1.6986,1.6988,1.704,1.705,1.7055,1.7062,1.6998,1.6999,1.6999,1.6999,1.7098,1.7113,1.7083,1.71,1.7077,1.7091,1.7073,1.7057,1.7064,1.7038,1.7046,1.7017,1.7065,1.7069,1.7001,1.7001,1.7001,1.7,1.7,1.7154,1.7157,1.7152,1.7154,1.7158,1.7135,1.7142,1.7122,1.7104,1.7111,1.7109,1.7108,1.7102,1.7112,1.7112,1.7112,1.7112,1.7113,1.7113,1.7214,1.7206,1.7215,1.7209,1.7207,1.7203,1.7182,1.7179,1.7171,1.7155,1.7155,1.7131,1.7074,1.7059,1.7115,1.7115,1.7115,1.7114,1.7114,1.7288,1.7267,1.7282,1.728,1.7268,1.7271,1.7245,1.7241,1.7235,1.7239,1.7213,1.7175,1.7163,1.7157,1.7144,1.7219,1.7219,1.7219,1.7219,1.7333,1.7325,1.7333,1.7331,1.7327,1.7304,1.7317,1.73,1.7279,1.7273,1.726,1.7242,1.7237,1.7227,1.722,1.7207,1.7297,1.7297,1.7297,1.7376,1.7366,1.7382,1.7362,1.735,1.734,1.735,1.7347,1.7319,1.7299,1.7268,1.7264,1.7235,1.7227,1.7206,1.7195,1.7172,0,0]},{"header":{"parameterUnit":"m.s-1","parameterCategory":1,"la1":30.2992,"la2":30.254,"lo1":-89.0895,"lo2":-89.0443,"dy":0.0025,"dx":0.0025,"nx":19,"ny":19,"refTime":"2026-03-19T03:00:00:Z","depth":0,"parameterNumber":3,"parameterNumberName":"V-component_of_WINDS"},"data":[0,0,0,2.4446,2.4446,2.4401,2.4401,2.4361,2.4361,0,0,0,0,0,0,0,0,0,0,0,2.4472,2.4472,2.4446,2.4445,2.4401,2.4401,2.4361,2.4361,0,0,0,0,0,0,0,0,0,0,0,2.4472,2.4472,2.4472,2.4445,2.4401,2.4401,2.4361,2.4388,0,0,0,0,0,0,0,0,0,0,2.4428,2.4465,2.4472,2.4472,2.4445,2.4401,2.4401,2.4389,2.4387,2.4389,0,2.4397,0,2.4379,2.436,2.436,0,0,0,2.4436,2.4467,2.4444,2.4472,2.4445,2.4402,2.4418,2.4388,2.4385,2.4386,2.4396,2.4394,2.4378,2.436,2.436,2.4409,2.4409,0,0,2.4438,2.447,2.4446,2.4443,2.4453,2.442,2.4417,2.4385,2.4398,2.4396,2.4393,2.4377,2.4359,2.4359,2.4408,2.4409,0,0,0,2.4452,2.4473,2.445,2.4445,2.4436,2.4419,2.4416,2.44,2.4389,2.4392,2.4377,2.4359,2.4359,2.4407,2.4408,2.4472,0,0,0,2.4453,2.448,2.4451,2.4471,2.4437,2.4418,2.4431,2.4392,2.4387,2.4377,2.4359,2.4359,2.4407,2.4408,2.4469,2.4497,0,0,0,2.447,2.4482,2.448,2.4472,2.4455,2.4417,2.4405,2.439,2.4378,2.436,2.4359,2.4406,2.4408,2.4466,2.4492,2.4517,0,0,0,2.4498,2.454,2.4482,2.4521,2.4455,2.4458,2.4405,2.4405,2.4397,2.4359,2.4407,2.4408,2.4465,2.4489,2.4514,2.4543,2.4559,0,0,2.4568,2.4549,2.4569,2.4517,2.4538,2.4462,2.4491,2.4454,2.4423,2.4415,2.4415,2.447,2.4491,2.4516,2.4639,2.4651,0,0,0,2.4602,2.4617,2.4616,2.461,2.4582,2.4558,2.4513,2.4498,2.4489,2.4426,2.4486,2.4498,2.4511,2.4523,2.4534,2.4542,2.4416,2.4416,2.4416,2.4747,2.4704,2.4733,2.4684,2.4679,2.4629,2.4619,2.459,2.455,2.4564,2.4561,2.4641,2.4657,2.4665,2.4673,2.4575,2.4575,2.4575,2.4575,2.4843,2.4856,2.4799,2.4807,2.4759,2.4765,2.4717,2.4688,2.4684,2.4641,2.465,2.4605,2.468,2.4685,2.458,2.4579,2.4578,2.4578,2.4578,2.4932,2.493,2.4911,2.4895,2.4887,2.4835,2.4833,2.4791,2.4751,2.476,2.475,2.4749,2.474,2.4758,2.4759,2.4759,2.4759,2.4759,2.476,2.5031,2.5007,2.5012,2.4983,2.4971,2.495,2.4898,2.4885,2.4859,2.4827,2.4827,2.4783,2.4696,2.4674,2.4764,2.4763,2.4762,2.4762,2.4762,2.5142,2.5109,2.5116,2.5105,2.5065,2.5057,2.5002,2.4978,2.496,2.496,2.4912,2.4856,2.4834,2.4825,2.4806,2.4924,2.4924,2.4924,2.4924,2.5215,2.5199,2.5195,2.5178,2.5157,2.5107,2.5112,2.507,2.5022,2.5007,2.4984,2.4956,2.4949,2.493,2.4919,2.4901,2.504,2.504,2.504,2.5279,2.5259,2.5273,2.5226,2.5191,2.5161,2.5163,2.5143,2.5082,2.5044,2.4994,2.4989,2.4944,2.4932,2.4893,2.4877,2.4842,0,0]}]]